User: anonymous   Login
Location: Unspecified
(0.0000°N, 0.0000°E)
Time: 19:01:46
(UTC+00:00)
Language:

BEESAT 4 - Orbit

View from above orbital plane
View from above orbital plane
View from above satellite
View from above satellite

Ground track
Ground track

The orbit data is extracted from the following two-line orbital elements,

1 41619U 16040W   17084.88029864 +.00002219 +00000-0 +10497-3 0  9995
2 41619 097.4719 148.0489 0012164 007.6167 352.5250 15.20374914029936
Epoch (UTC): 25 March 2017 21:07:37
Eccentricity: 0.0012164
inclination: 97.4719°
perigee height: 496 km
apogee height: 513 km
right ascension of ascending node: 148.0489°
argument of perigee: 7.6167°
revolutions per day: 15.20374914
mean anomaly at epoch: 352.5250°
orbit number at epoch: 2993

The dashed part of the orbit path shows where the satellite is in the earth's shadow,  

DLR